SCP
0 0 0 0 0 0 0 0 0 0 1 1 1 1 1 1 0 0 0 0 0 0 0 0 0 0 0 0 0 0 0 0 0 0 0 0 0 0 0 0 0 0 0
0 0 0 0 0 0 0 0 0 0 1 1 1 1 1 1 0 0 0 0 0 0 0 0 0 0 0 0 0 0 0 0 0 0 0 0 0 0 0 0 0 0 0
0 0 0 0 0 0 0 0 0 0 0 1 1 1 1 1 1 0 0 0 0 0 0 0 0 0 0 0 0 0 0 0 0 0 0 0 0 0 0 0 0 0 0
0 0 0 0 0 0 0 0 0 0 0 0 0 1 1 1 1 1 0 0 0 0 0 0 0 0 0 0 0 0 0 0 0 0 0 0 0 0 0 0 0 0 0
0 0 0 0 0 0 0 0 0 0 0 0 0 0 0 0 0 0 0 0 0 0 0 0 0 0 0 0 0 0 0 0 0 0 0 0 0 0 0 0 0 0 0
0 0 0 0 0 0 0 0 0 0 0 0 0 0 0 0 0 0 0 0 0 0 0 0 0 0 0 0 0 0 0 0 0 0 0 0 0 0 0 0 0 0 0
0 0 0 0 0 0 0 0 0 0 0 0 0 0 0 0 0 0 0 0 0 0 0 0 0 0 0 0 0 0 0 0 0 0 0 0 0 0 0 0 0 0 0
0 0 0 0 0 0 0 0 0 0 0 0 0 0 0 0 0 0 0 0 0 0 0 0 0 0 0 0 0 0 0 0 0 0 0 0 0 0 0 0 0 0 0
0 0 0 0 0 0 0 0 0 0 0 0 0 0 0 0 0 0 0 0 0 0 0 0 0 0 0 0 0 0 0 0 0 0 0 0 0 0 0 0 0 0 0
0 0 0 0 0 0 0 0 0 0 0 0 0 0 0 0 0 0 0 0 0 0 0 0 0 0 0 0 0 0 0 0 0 0 0 0 0 0 0 0 0 0 0
0 0 0 0 0 0 0 0 0 0 0 0 0 0 0 0 0 0 0 0 0 0 0 0 0 0 0 0 0 0 0 0 0 0 0 0 0 0 0 0 0 0 0
0 0 0 0 0 0 0 0 0 0 0 0 0 0 0 0 0 0 0 0 0 0 0 0 0 0 0 0 0 0 0 0 0 0 0 0 0 0 0 0 0 0 0
0 0 0 0 0 0 0 0 0 0 0 0 0 0 0 0 0 0 0 0 0 0 0 0 0 0 0 0 0 0 0 0 0 0 0 0 0 0 0 0 0 0 0
0 0 0 0 0 0 0 0 0 0 0 0 0 0 0 0 0 0 0 0 0 0 0 0 0 0 0 0 0 0 0 0 0 0 0 0 0 0 0 0 0 0 0
0 0 0 0 0 0 0 0 0 0 0 0 0 0 0 0 0 0 0 0 0 0 0 0 0 0 0 0 0 0 0 0 0 0 0 0 0 0 0 0 0 0 0
0 0 0 0 0 0 0 0 0 0 0 0 0 0 0 0 0 0 0 0 0 0 0 0 0 0 0 0 0 0 0 0 0 0 0 0 0 0 0 0 0 0 0
0 0 0 0 0 0 0 0 0 0 0 0 0 0 0 0 0 0 0 0 0 0 0 0 0 0 0 0 0 0 0 0 0 0 0 0 0 0 0 0 0 0 0
0 0 0 0 0 0 0 0 0 0 0 0 0 0 0 0 0 0 0 0 0 0 0 0 0 0 0 0 0 0 0 0 0 0 0 0 0 0 0 0 0 0 0
0 0 0 0 0 0 0 0 0 0 0 0 0 0 0 0 0 0 0 0 0 0 0 0 0 0 0 0 0 0 0 0 0 0 0 0 0 0 0 0 0 0 0
0 0 0 0 0 0 0 0 0 0 0 0 0 0 0 0 0 0 0 0 0 0 0 0 0 0 0 0 0 0 0 0 0 0 0 0 0 0 0 0 0 0 0
0 0 0 0 0 0 0 0 0 0 0 0 0 0 0 0 0 0 0 0 0 0 0 0 0 0 0 0 0 0 0 0 0 0 0 0 0 0 0 0 0 0 0
0 0 0 0 0 0 0 0 0 0 0 0 0 0 0 0 0 0 0 0 0 0 0 0 0 0 0 0 0 0 0 0 0 0 0 0 0 0 0 0 0 0 0
0 0 0 0 0 0 0 0 0 0 0 0 0 0 0 0 0 0 0 0 0 0 0 0 0 0 0 0 0 0 0 0 0 0 0 0 0 0 0 0 0 0 0
0 0 0 0 0 0 0 0 0 0 0 0 0 0 0 0 0 0 0 0 0 0 0 0 0 0 0 0 0 0 0 0 0 0 0 0 0 0 0 0 0 0 0
0 0 0 0 0 0 0 0 0 0 0 0 0 0 0 0 0 0 0 0 0 0 0 0 0 0 0 0 0 0 0 0 0 0 0 0 0 0 0 0 0 0 0
0 0 0 0 0 0 0 0 0 0 0 0 0 0 0 0 0 0 0 0 0 0 0 0 0 0 0 0 0 0 0 0 0 0 0 0 0 0 0 0 0 0 0
Wind_Speed
1 1 1 1 2 2 2 3 2 3 3 4 4 4 4 4 4 4 4 4 5 5 4 5 5 3 3 3 2 2 3 3 4 3 2 1 2 3 3 2 2 3 3
1 1 1 1 1 2 2 2 2 3 3 4 4 4 5 5 4 5 5 5 5 5 5 5 6 4 4 3 3 4 3 3 4 5 3 2 3 3 3 3 3 3 3
0 1 1 1 2 2 2 2 2 3 3 3 4 5 5 5 5 5 5 5 5 6 6 6 6 5 5 4 4 4 3 3 3 3 4 2 2 2 2 3 3 3 3
0 1 1 2 2 2 2 2 2 2 3 4 4 4 5 5 5 5 5 5 5 5 5 5 5 6 6 5 5 4 3 3 3 3 3 2 2 2 2 3 3 3 4
1 1 2 2 2 2 2 2 2 2 3 3 3 4 4 4 5 5 5 5 5 5 5 5 5 5 7 6 5 5 5 4 3 3 4 3 3 2 3 2 4 3 4
1 2 2 2 2 2 2 2 2 2 3 3 3 4 4 4 7 8 7 5 6 6 6 5 5 6 6 8 8 8 8 7 6 5 5 5 5 4 3 3 3 2 4
1 2 2 2 2 2 2 2 2 3 3 3 4 4 4 5 8 9 9 6 6 6 6 5 4 5 5 5 7 8 8 10 9 7 7 7 6 5 4 4 4 4 5
1 2 2 2 3 2 2 3 3 3 3 3 4 4 4 5 8 8 8 6 5 5 5 6 6 5 6 5 5 6 6 7 8 7 7 7 6 4 5 5 5 4 4
2 3 3 3 3 3 3 3 3 3 3 3 3 4 4 5 8 8 7 4 4 5 5 5 6 6 7 8 6 6 6 6 8 9 9 9 9 8 5 2 2 2 4
3 3 3 2 3 3 4 4 3 3 3 3 3 3 4 5 7 8 7 3 4 4 4 4 6 7 8 9 7 6 8 7 5 5 7 8 7 7 8 6 5 4 3
3 3 3 2 3 3 3 3 3 3 2 3 3 3 3 4 5 6 7 4 4 4 4 4 4 8 9 10 9 7 9 6 4 5 5 5 4 4 5 5 5 5 5
3 3 3 3 3 2 3 3 2 2 2 3 3 3 3 3 4 5 7 7 5 4 4 4 4 8 9 10 8 8 9 6 4 4 4 5 5 4 4 4 4 5 5
3 3 3 3 3 2 2 3 2 2 2 2 2 3 3 2 3 6 6 7 7 5 4 6 7 8 8 7 8 8 6 4 4 5 5 5 4 4 3 2 3 3 3
3 3 3 3 3 3 2 2 2 3 2 2 3 3 3 3 2 2 2 3 4 5 4 4 6 8 7 6 5 5 4 4 4 5 4 4 2 3 3 3 3 3 2
3 3 3 3 3 3 3 3 3 3 4 4 3 3 3 4 5 6 4 3 3 3 2 2 2 2 3 3 3 3 3 3 4 4 4 3 3 3 3 3 3 3 4
3 3 3 2 2 2 3 3 5 5 6 7 6 5 4 6 7 7 7 6 6 5 3 2 3 3 4 4 3 3 3 4 4 4 4 4 4 4 4 3 3 4 5
3 3 3 2 2 2 2 3 4 4 5 6 7 7 7 7 7 7 6 5 5 4 3 3 4 4 4 3 3 4 4 3 3 3 4 4 4 4 4 4 4 4 5
3 3 3 3 3 3 2 3 2 3 4 4 5 7 7 7 7 6 5 3 3 3 3 3 4 4 4 4 4 4 3 3 3 3 4 4 4 4 5 5 5 5 5
3 3 2 2 2 2 2 2 2 2 3 4 4 4 5 6 6 5 3 2 2 3 3 3 3 3 3 4 4 4 4 4 4 4 4 4 4 4 5 5 5 6 5
2 3 3 2 2 2 2 2 2 2 2 3 3 3 3 2 2 2 2 2 2 3 3 3 3 3 3 3 3 3 4 4 4 4 4 4 4 4 5 5 5 5 5
2 2 2 2 2 2 2 2 2 2 2 3 3 3 5 3 3 3 2 2 3 3 3 3 3 3 3 3 3 3 4 4 4 4 4 4 4 4 4 4 5 5 4
2 2 2 2 2 2 2 2 2 2 3 3 3 3 5 3 2 3 3 3 3 3 3 3 3 3 3 3 3 3 4 4 4 4 4 3 3 4 4 4 4 4 4
1 1 2 2 2 2 2 2 2 2 3 3 3 3 3 3 3 3 3 3 3 3 3 3 3 3 3 3 3 3 4 4 4 4 4 4 4 4 4 4 5 5 5
1 1 2 2 2 2 2 2 2 3 3 3 3 3 3 3 4 4 4 3 3 3 3 3 3 5 6 4 3 3 3 4 3 3 4 4 4 4 4 4 4 5 5
1 1 1 2 2 2 2 3 3 3 3 3 3 3 3 4 4 4 4 3 4 4 4 4 4 4 6 6 6 5 5 6 5 3 3 3 4 5 5 5 4 4 4
1 1 2 2 2 3 3 3 3 4 4 3 4 4 4 4 4 4 4 3 3 4 4 4 5 6 7 5 6 6 6 6 6 5 4 3 4 5 4 4 4 4 4
Wind_Direction
214 217 236 242 228 207 209 219 214 203 194 192 194 200 204 207 206 203 207 206 210 211 209 212 220 212 215 218 214 220 226 216 241 268 270 270 253 259 274 264 261 260 267
216 210 227 239 241 226 225 224 217 216 208 201 196 200 204 207 208 209 213 213 213 214 213 212 219 215 216 214 212 219 223 220 227 259 278 275 258 247 257 264 272 272 267
221 222 244 243 241 239 238 234 224 224 219 207 203 206 208 208 209 213 217 217 217 218 214 214 217 210 219 217 215 220 225 231 228 240 263 271 272 268 276 280 274 276 279
249 234 254 257 253 249 247 243 240 234 228 218 214 213 210 209 208 211 216 217 220 223 223 221 218 213 218 215 218 220 219 224 227 240 254 261 264 268 258 273 286 278 282
306 274 274 282 277 267 258 250 244 243 243 234 223 220 214 210 209 208 211 215 218 221 224 225 227 223 222 219 220 215 211 219 225 238 247 254 249 247 248 250 271 287 284
292 287 287 283 284 276 267 256 249 248 248 238 229 225 223 219 216 216 214 216 218 220 223 225 227 224 222 226 228 224 218 218 223 228 239 245 246 241 244 249 261 284 279
275 288 296 288 277 273 270 259 245 248 246 240 237 230 232 230 226 222 220 219 221 222 222 222 227 225 221 225 230 234 233 233 230 228 236 242 243 231 225 241 243 249 259
290 294 299 298 292 287 273 262 260 258 248 243 241 237 238 237 233 230 222 222 224 225 225 223 226 227 222 223 226 234 238 236 236 235 240 247 248 239 223 229 240 258 282
285 285 288 285 283 282 275 272 266 260 256 250 246 239 238 242 236 233 225 223 226 230 230 228 227 230 230 228 229 238 248 251 249 247 253 257 255 245 233 223 225 240 272
290 291 293 288 279 276 275 278 274 261 258 261 262 252 242 243 238 236 228 224 230 235 237 234 229 232 233 229 229 233 245 251 251 259 257 260 255 243 229 218 211 224 249
310 307 304 295 286 283 285 286 282 272 268 265 265 269 260 249 241 238 234 232 228 234 238 239 238 239 241 239 236 236 245 250 246 247 254 254 251 242 233 228 219 217 227
314 308 303 300 294 290 284 283 278 269 264 266 268 273 270 257 242 244 243 241 238 236 243 246 245 247 250 249 244 245 248 247 241 241 246 247 245 246 243 237 237 236 236
313 303 302 301 291 285 274 274 275 262 257 263 262 265 272 267 253 251 247 247 248 247 244 245 252 256 257 253 251 252 242 229 230 238 243 247 244 244 244 244 243 243 258
294 295 298 296 297 296 282 265 259 254 252 257 261 266 273 272 263 255 251 255 254 255 254 250 256 258 254 253 251 244 232 226 226 236 247 253 247 233 232 227 232 228 251
287 287 287 282 283 287 286 275 270 258 243 250 254 255 260 267 267 273 273 260 253 251 260 261 252 252 247 251 247 235 228 226 231 237 237 242 246 244 243 230 226 222 235
279 283 282 282 283 283 289 298 290 283 285 282 278 276 274 275 287 280 273 270 266 255 251 245 246 243 245 249 250 249 235 232 233 233 233 233 238 242 247 239 230 228 243
262 271 275 271 268 271 274 279 298 307 299 294 291 290 289 290 288 285 281 275 269 257 251 251 247 246 247 246 247 247 244 241 237 233 236 235 234 238 239 240 236 238 243
266 263 260 259 259 262 266 272 276 289 305 307 304 300 303 303 299 290 280 282 269 263 255 256 256 253 249 246 246 250 251 244 237 236 238 237 232 234 239 238 234 233 242
267 265 262 264 263 263 266 272 278 283 291 301 312 313 313 311 310 305 299 276 260 260 262 263 263 261 259 254 248 244 241 243 241 239 239 238 235 234 240 239 236 233 235
266 271 270 270 273 271 268 271 280 288 294 296 299 307 323 321 310 308 297 281 275 277 275 273 271 264 261 258 253 245 241 242 241 242 244 241 236 233 240 242 235 234 236
263 265 258 258 256 259 266 269 275 279 283 290 293 298 307 305 296 295 285 280 279 282 283 284 284 278 267 262 256 254 249 247 242 243 244 243 239 240 241 243 238 234 235
251 256 256 253 258 262 268 271 276 278 283 289 299 307 305 300 290 290 292 290 284 282 284 286 285 282 277 271 265 263 265 262 254 248 247 248 244 242 243 245 241 234 228
253 259 266 265 259 260 265 264 267 272 281 286 294 299 298 288 286 287 288 291 296 296 293 287 288 291 292 284 275 264 261 261 258 249 251 254 251 248 246 247 240 234 233
261 252 260 273 273 266 268 273 274 275 277 281 282 281 282 284 283 283 284 287 291 292 292 289 281 282 288 290 282 270 266 269 268 255 245 247 252 252 250 249 244 233 232
273 272 269 271 274 272 272 272 272 274 275 276 277 276 277 277 279 280 280 280 282 283 286 287 284 283 283 280 280 280 280 281 278 263 248 244 249 251 247 245 242 238 235
266 272 276 274 271 270 268 271 273 273 272 272 273 274 274 274 276 279 284 285 286 286 286 285 284 287 287 284 282 284 283 280 275 264 251 246 247 250 245 242 235 234 232